KD2VWU Weather Reports


Display with metric or nautical units.
time (UTC)temp
F
wind
direction
speed
MPH
gust
MPH
rain 1hr
in
rain 24hr
in
rain mn
in
humidity
%
barometer
mb
20260902195850 66 104 0.0 0.0 0.00 0.80 0.80 99 1016.9
20260902195349 66 170 0.0 1.0 0.00 0.80 0.80 99 1016.8
20260902194845 66 46 0.0 0.0 0.00 0.80 0.80 99 1016.8
20260902194339 66 21 1.0 1.0 0.00 0.80 0.80 99 1017.0
20260902193835 67 62 0.0 0.0 0.00 0.80 0.80 99 1017.0
20260902193331 66 67 0.0 0.0 0.00 0.80 0.80 99 1017.1
20260902192829 66 70 0.0 0.0 0.00 0.80 0.80 99 1017.3
20260902192327 66 58 0.0 0.0 0.00 0.80 0.80 99 1017.4
20260902191822 65 57 0.0 0.0 0.00 0.80 0.80 99 1017.3
20260902191318 65 51 0.0 0.0 0.00 0.80 0.80 99 1017.5
20260902190813 66 54 0.0 0.0 0.07 0.80 0.80 99 1017.8
20260902190312 65 67 0.0 0.0 0.19 0.80 0.80 99 1017.6
20260902185808 64 66 0.0 0.0 0.42 0.79 0.79 99 1017.6
20260902185306 64 76 0.0 0.0 0.66 0.77 0.77 99 1017.7
20260902184759 64 62 0.0 0.0 0.61 0.73 0.73 99 1017.7
20260902184254 64 74 0.0 0.0 1.32 0.66 0.66 99 1017.9
20260902183750 64 251 1.0 1.0 1.91 0.61 0.61 99 1018.8
20260902183246 65 57 0.0 0.0 2.29 0.43 0.43 99 1018.8
20260902182742 65 85 0.0 0.0 1.75 0.29 0.29 99 1019.1
20260902182238 66 35 1.0 1.0 0.31 0.05 0.05 98 1019.2
20260902181735 66 297 2.0 2.0 0.00 0.00 0.00 97 1018.3
20260902181234 66 53 0.0 0.0 0.00 0.00 0.00 96 1017.5
20260902180729 66 67 0.0 0.0 0.00 0.00 0.00 96 1017.3
20260902180224 66 63 0.0 0.0 0.00 0.00 0.00 96 1017.3
20260902175719 67 71 0.0 0.0 0.00 0.00 0.00 96 1017.4
20260902175215 67 71 0.0 0.0 0.00 0.00 0.00 95 1017.7
20260902174711 67 72 0.0 0.0 0.00 0.00 0.00 95 1017.6
20260902174207 67 71 0.0 0.0 0.00 0.00 0.00 95 1017.9
20260902173702 67 61 0.0 0.0 0.00 0.00 0.00 95 1017.7
20260902173156 67 83 0.0 0.0 0.00 0.00 0.00 96 1017.7
20260902172651 67 62 0.0 0.0 0.00 0.00 0.00 96 1017.6
20260902172150 67 59 0.0 0.0 0.00 0.00 0.00 96 1017.8
20260902171645 67 60 0.0 0.0 0.00 0.00 0.00 96 1017.9
20260902171141 67 61 0.0 0.0 0.00 0.00 0.00 96 1017.7
20260902170637 67 63 0.0 0.0 0.00 0.00 0.00 96 1017.8
20260902170132 67 69 0.0 0.0 0.00 0.00 0.00 95 1017.9
20260902165627 67 63 0.0 0.0 0.00 0.00 0.00 95 1017.9
20260902165126 67 68 0.0 0.0 0.00 0.00 0.00 96 1018.2
20260902164622 67 34 0.0 0.0 0.00 0.00 0.00 96 1018.2
20260902164121 66 21 0.0 0.0 0.00 0.00 0.00 95 1018.2
20260902163616 66 60 0.0 0.0 0.00 0.00 0.00 96 1017.9
20260902163115 66 103 0.0 0.0 0.00 0.00 0.00 97 1018.0
20260902162614 66 113 0.0 0.0 0.00 0.00 0.00 97 1018.2
20260902162109 66 1 0.0 0.0 0.00 0.00 0.00 97 1017.9
20260902161604 66 66 0.0 0.0 0.00 0.00 0.00 98 1017.8
20260902161100 66 63 0.0 0.0 0.00 0.00 0.00 98 1017.8
20260902160556 66 60 0.0 0.0 0.00 0.00 0.00 97 1017.9
20260902160051 66 72 0.0 0.0 0.00 0.00 0.00 97 1018.0
20260902155544 66 70 0.0 0.0 0.00 0.00 0.00 96 1018.3
20260902155043 66 49 0.0 0.0 0.00 0.00 0.00 98 1018.0
20260902154538 66 357 0.0 0.0 0.00 0.00 0.00 98 1018.2
20260902154033 66 58 0.0 0.0 0.00 0.00 0.00 98 1018.2
20260902153531 66 43 0.0 0.0 0.00 0.00 0.00 97 1017.9
20260902153027 66 61 0.0 0.0 0.00 0.00 0.00 97 1018.3
20260902152524 66 64 0.0 0.0 0.00 0.00 0.00 97 1018.2
20260902152019 66 321 0.0 1.0 0.00 0.00 0.00 96 1018.4
20260902151515 65 318 0.0 1.0 0.00 0.00 0.00 96 1017.9
20260902151014 65 58 0.0 0.0 0.00 0.00 0.00 98 1018.2
20260902150509 65 35 0.0 0.0 0.00 0.00 0.00 99 1018.3
20260902150004 64 13 0.0 0.0 0.00 0.00 0.00 98 1018.5
20260902145459 65 17 0.0 0.0 0.00 0.00 0.00 99 1018.5
20260902144953 64 26 0.0 0.0 0.00 0.00 0.00 99 1018.3
20260902144450 64 52 0.0 0.0 0.00 0.00 0.00 99 1018.4
20260902143944 64 52 0.0 0.0 0.00 0.00 0.00 99 1018.5
20260902143440 64 52 0.0 0.0 0.00 0.00 0.00 99 1018.2
20260902142934 64 47 0.0 0.0 0.00 0.00 0.00 99 1018.5
20260902142430 64 40 0.0 0.0 0.00 0.00 0.00 99 1018.4
20260902141925 63 14 0.0 0.0 0.00 0.00 0.00 99 1017.9
20260902141421 64 64 0.0 0.0 0.00 0.00 0.00 99 1018.0
20260902140919 64 64 0.0 0.0 0.00 0.00 0.00 99 1018.4
20260902140415 63 62 0.0 0.0 0.00 0.00 0.00 99 1018.5
20260902135910 63 63 0.0 0.0 0.00 0.00 0.00 99 1018.4
20260902135406 63 64 0.0 0.0 0.00 0.00 0.00 99 1018.4
20260902134904 63 65 0.0 0.0 0.00 0.00 0.00 99 1018.5
20260902134401 62 66 0.0 0.0 0.00 0.00 0.00 99 1018.4
20260902133855 62 65 0.0 0.0 0.00 0.00 0.00 99 1018.0
20260902133355 62 66 0.0 0.0 0.00 0.00 0.00 99 1018.2
20260902132850 62 58 0.0 0.0 0.00 0.00 0.00 99 1018.0
20260902132345 62 63 0.0 0.0 0.00 0.00 0.00 99 1017.8
20260902131840 62 66 0.0 0.0 0.00 0.00 0.00 99 1017.8
20260902131338 62 66 0.0 0.0 0.00 0.00 0.00 99 1017.9
20260902130836 62 66 0.0 0.0 0.00 0.00 0.00 99 1018.0
20260902130332 62 58 0.0 0.0 0.00 0.00 0.00 99 1017.8
20260902125827 62 66 0.0 0.0 0.00 0.00 0.00 99 1017.9
20260902125323 62 65 0.0 0.0 0.00 0.00 0.00 99 1017.9
20260902124819 62 66 0.0 0.0 0.00 0.00 0.00 99 1018.0
20260902124315 61 66 0.0 0.0 0.00 0.00 0.00 99 1017.8
20260902123809 61 66 0.0 0.0 0.00 0.00 0.00 99 1017.7
20260902123306 61 64 0.0 0.0 0.00 0.00 0.00 99 1017.8
20260902122805 61 66 0.0 0.0 0.00 0.00 0.00 99 1017.7
20260902122305 61 66 0.0 0.0 0.00 0.00 0.00 99 1017.7
20260902121800 61 58 0.0 0.0 0.00 0.00 0.00 99 1017.8
20260902121255 61 58 0.0 0.0 0.00 0.00 0.00 99 1017.7
20260902120751 61 65 0.0 0.0 0.00 0.00 0.00 99 1017.8
20260902120247 61 66 0.0 0.0 0.00 0.00 0.00 99 1017.7
20260902115742 61 67 0.0 0.0 0.00 0.00 0.00 99 1017.5
20260902115238 61 66 0.0 0.0 0.00 0.00 0.00 99 1017.6
20260902114734 61 66 0.0 0.0 0.00 0.00 0.00 99 1017.8
20260902114230 61 71 0.0 0.0 0.00 0.00 0.00 99 1017.8
20260902113724 61 66 0.0 0.0 0.00 0.00 0.00 99 1017.8
20260902113219 61 66 0.0 0.0 0.00 0.00 0.00 99 1017.8
20260902112718 61 66 0.0 0.0 0.00 0.00 0.00 99 1017.9
20260902112216 61 54 0.0 0.0 0.00 0.00 0.00 99 1017.8
20260902111711 61 66 0.0 0.0 0.00 0.00 0.00 99 1017.8
20260902111207 61 66 0.0 0.0 0.00 0.00 0.00 99 1017.8
20260902110702 61 66 0.0 0.0 0.00 0.00 0.00 99 1017.6
20260902110158 61 66 0.0 0.0 0.00 0.00 0.00 99 1017.6
20260902105658 61 59 0.0 0.0 0.00 0.00 0.00 99 1017.5
20260902105154 61 66 0.0 0.0 0.00 0.00 0.00 99 1017.6
20260902104649 61 58 0.0 0.0 0.00 0.00 0.00 99 1017.7
20260902104144 61 62 0.0 0.0 0.00 0.00 0.00 99 1017.5
20260902103643 60 66 0.0 0.0 0.00 0.00 0.00 99 1017.3
20260902103138 60 66 0.0 0.0 0.00 0.00 0.00 99 1017.2
20260902102635 60 67 0.0 0.0 0.00 0.00 0.00 99 1017.3
20260902102132 60 66 0.0 0.0 0.00 0.00 0.00 99 1017.4
20260902101627 61 66 0.0 0.0 0.00 0.00 0.00 99 1017.3
20260902101126 61 66 0.0 0.0 0.00 0.00 0.00 99 1017.3
20260902100621 61 79 0.0 0.0 0.00 0.00 0.00 99 1017.3
20260902100116 61 66 0.0 0.0 0.00 0.00 0.00 99 1017.3
20260902095615 0 0.0 0.0 0.00 0.00 0.00 1017.3
20260902095115 62 330 1.0 2.0 0.00 0.00 0.00 99 1017.2
20260902094610 62 330 1.0 2.0 0.00 0.00 0.00 99 1017.3
20260902094106 62 330 1.0 2.0 0.00 0.00 0.00 99 1017.2
20260902093606 0 0.0 0.0 0.00 0.00 0.00 1016.8
20260902093100 0 0.0 0.0 0.00 0.00 0.00 1016.8
20260902092555 0 0.0 0.0 0.00 0.00 0.00 1016.9
20260902092050 0 0.0 0.0 0.00 0.00 0.00 1016.9
20260902091545 0 0.0 0.0 0.00 0.00 0.00 1016.9
20260902091041 0 0.0 0.0 0.00 0.00 0.00 1016.7
20260902090537 62 63 0.0 0.0 0.00 0.00 0.00 99 1016.9
20260902090036 62 63 0.0 0.0 0.00 0.00 0.00 99 1016.6
20260902085530 62 63 0.0 0.0 0.00 0.00 0.00 99 1016.9
20260902085026 62 68 0.0 0.0 0.00 0.00 0.00 99 1016.5
20260902084522 62 65 0.0 0.0 0.00 0.00 0.00 99 1016.6
20260902084017 62 87 0.0 0.0 0.00 0.00 0.00 99 1016.5
20260902083513 62 68 0.0 0.0 0.00 0.00 0.00 99 1016.4
20260902083007 62 66 0.0 0.0 0.00 0.00 0.00 99 1016.3
20260902082503 62 55 0.0 0.0 0.00 0.00 0.00 99 1016.4
20260902081959 62 68 0.0 0.0 0.00 0.00 0.00 99 1016.2
20260902081455 62 64 0.0 0.0 0.00 0.00 0.00 99 1016.4
20260902080949 62 59 0.0 0.0 0.00 0.00 0.00 99 1016.2
20260902080446 62 76 0.0 0.0 0.00 0.00 0.00 99 1016.2
20260902075945 62 60 0.0 0.0 0.00 0.00 0.00 99 1016.3
20260902075441 62 65 0.0 0.0 0.00 0.00 0.00 99 1016.2
20260902074936 62 55 0.0 0.0 0.00 0.00 0.00 99 1016.2
20260902074432 62 68 0.0 0.0 0.00 0.00 0.00 99 1016.2
20260902073927 0 0.0 0.0 0.00 0.00 0.00 1016.0
20260902073423 62 36 0.0 0.0 0.00 0.00 0.00 99 1016.1
20260902072919 62 36 0.0 0.0 0.00 0.00 0.00 99 1016.3
20260902072414 62 61 0.0 0.0 0.00 0.00 0.00 99 1015.9
20260902071911 62 61 0.0 0.0 0.00 0.00 0.00 99 1016.1
20260902071410 62 70 0.0 0.0 0.00 0.00 0.00 99 1015.9
20260902070907 62 73 0.0 0.0 0.00 0.00 0.00 99 1015.8
20260902070401 62 73 0.0 0.0 0.00 0.00 0.00 99 1015.8
20260902065900 62 75 0.0 0.0 0.00 0.00 0.00 99 1016.0
20260902065350 62 61 0.0 0.0 0.00 0.00 0.00 99 1015.9
20260902064845 62 63 0.0 0.0 0.00 0.00 0.00 99 1016.0
20260902064341 62 63 0.0 0.0 0.00 0.00 0.00 99 1016.2
20260902063837 62 71 0.0 0.0 0.00 0.00 0.00 99 1016.2
20260902063336 62 71 0.0 0.0 0.00 0.00 0.00 99 1015.9
20260902062830 62 72 0.0 0.0 0.00 0.00 0.00 99 1016.0
20260902062325 62 72 0.0 0.0 0.00 0.00 0.00 99 1016.1
20260902061825 0 0.0 0.0 0.00 0.00 0.00 1016.1
20260902061320 0 0.0 0.0 0.00 0.00 0.00 1016.1
20260902060817 62 66 0.0 0.0 0.00 0.00 0.00 99 1016.4
20260902060312 62 66 0.0 0.0 0.00 0.00 0.00 99 1016.2
20260902055808 62 58 0.0 0.0 0.00 0.00 0.00 99 1016.1
20260902055307 62 63 0.0 0.0 0.00 0.00 0.00 99 1016.2
20260902054759 62 63 0.0 0.0 0.00 0.00 0.00 99 1016.1
20260902054254 62 71 0.0 0.0 0.00 0.00 0.00 99 1016.2
20260902053750 62 63 0.0 0.0 0.00 0.00 0.00 99 1016.4
20260902053249 62 62 0.0 0.0 0.00 0.00 0.00 99 1016.4
20260902052748 62 62 0.0 0.0 0.00 0.00 0.00 99 1016.3
20260902052244 0 0.0 0.0 0.00 0.00 0.00 1016.2
20260902051743 62 98 0.0 0.0 0.00 0.00 0.00 99 1016.1
20260902051238 62 98 0.0 0.0 0.00 0.00 0.00 99 1016.1
20260902050733 62 98 0.0 0.0 0.00 0.00 0.00 99 1016.1
20260902050229 62 69 0.0 0.0 0.00 0.00 0.00 99 1016.0
20260902045728 62 76 0.0 0.0 0.00 0.00 0.00 99 1016.1
20260902045225 62 76 0.0 0.0 0.00 0.00 0.00 99 1016.0
20260902044720 62 76 0.0 0.0 0.00 0.00 0.00 99 1016.1
20260902044215 0 0.0 0.0 0.00 0.00 0.00 1016.3
20260902043715 62 71 0.0 0.0 0.00 0.00 0.00 99 1015.9
20260902043211 62 71 0.0 0.0 0.00 0.00 0.00 99 1016.0
20260902042710 62 69 0.0 0.0 0.00 0.00 0.00 99 1016.4
20260902042205 62 69 0.0 0.0 0.00 0.00 0.00 99 1016.0
20260902041700 0 0.0 0.0 0.00 0.00 0.00 1016.2
20260902041154 62 69 0.0 0.0 0.00 0.00 0.00 99 1015.9
20260902040649 62 69 0.0 0.0 0.00 0.00 0.00 99 1016.0
20260902040144 62 65 0.0 0.0 0.00 0.00 0.00 99 1015.8
20260902035642 62 52 0.0 1.0 0.00 0.80 0.80 99 1015.7
20260902035138 62 66 0.0 0.0 0.00 0.80 0.80 99 1015.6
20260902034637 0 0.0 0.0 0.00 0.00 0.00 1015.8
20260902034137 62 73 0.0 0.0 0.00 0.80 0.80 99 1015.5
20260902033636 62 73 0.0 0.0 0.00 0.80 0.80 99 1015.5
20260902033131 62 69 0.0 0.0 0.00 0.80 0.80 99 1015.6
20260902032629 62 69 0.0 0.0 0.00 0.80 0.80 99 1015.2
20260902032124 62 70 0.0 0.0 0.00 0.80 0.80 99 1015.1
20260902031619 62 77 0.0 1.0 0.00 0.80 0.80 99 1015.0
20260902031115 63 73 0.0 0.0 0.00 0.80 0.80 99 1015.2
20260902030610 62 53 0.0 0.0 0.00 0.80 0.80 99 1015.2
20260902030109 63 55 0.0 0.0 0.00 0.80 0.80 99 1015.2
20260902025603 63 69 0.0 0.0 0.00 0.80 0.80 99 1015.0
20260902025059 63 65 0.0 0.0 0.00 0.80 0.80 99 1015.0
20260902024554 63 64 0.0 0.0 0.00 0.80 0.80 99 1015.3
20260902024054 63 69 0.0 0.0 0.00 0.80 0.80 99 1015.0
20260902023550 63 63 0.0 0.0 0.00 0.80 0.80 99 1014.8
20260902023044 63 62 0.0 0.0 0.00 0.80 0.80 99 1014.3
20260902022539 63 63 0.0 0.0 0.00 0.80 0.80 99 1014.7
20260902022035 63 63 0.0 0.0 0.00 0.80 0.80 99 1014.8
20260902021531 63 69 0.0 0.0 0.00 0.80 0.80 99 1014.9
20260902021030 63 64 0.0 0.0 0.00 0.80 0.80 99 1014.8
20260902020526 63 69 0.0 0.0 0.00 0.80 0.80 99 1014.9
20260902020022 63 62 0.0 0.0 0.00 0.80 0.80 99 1014.7
20260902015518 63 70 0.0 0.0 0.00 0.80 0.80 99 1014.8
20260902015013 63 64 0.0 0.0 0.00 0.80 0.80 99 1014.4
20260902014509 63 64 0.0 0.0 0.00 0.80 0.80 99 1014.7
20260902014005 63 76 0.0 0.0 0.00 0.80 0.80 99 1014.7
20260902013459 63 75 0.0 0.0 0.00 0.80 0.80 99 1014.4
20260902012954 63 78 0.0 0.0 0.00 0.80 0.80 99 1014.2
20260902012450 64 66 0.0 0.0 0.00 0.80 0.80 99 1014.2
20260902011945 64 66 0.0 0.0 0.00 0.80 0.80 99 1014.1
20260902011440 64 74 0.0 0.0 0.00 0.80 0.80 99 1014.1
20260902010940 64 66 0.0 0.0 0.00 0.80 0.80 99 1013.9
20260902010435 65 72 0.0 0.0 0.00 0.80 0.80 99 1013.9
20260902005934 65 66 0.0 0.0 0.00 0.80 0.80 99 1013.8
20260902005433 65 65 0.0 0.0 0.00 0.80 0.80 99 1013.6
20260902004930 65 69 0.0 0.0 0.00 0.80 0.80 99 1013.8
20260902004429 65 65 0.0 0.0 0.00 0.80 0.80 99 1014.1
20260902003924 66 82 0.0 0.0 0.00 0.80 0.80 99 1013.9
20260902003419 66 75 0.0 0.0 0.00 0.80 0.80 99 1013.6
20260902002914 66 57 0.0 0.0 0.00 0.80 0.80 99 1013.7
20260902002409 66 66 0.0 0.0 0.00 0.80 0.80 99 1013.3
20260902001903 66 70 0.0 0.0 0.00 0.80 0.80 99 1013.4
20260902001358 67 77 1.0 1.0 0.00 0.80 0.80 99 1013.5
20260902000853 67 66 0.0 0.0 0.00 0.80 0.80 99 1013.3
20260902000354 68 51 0.0 0.0 0.00 0.80 0.80 99 1013.2
20260901235848 68 75 0.0 1.0 0.05 0.80 0.80 99 1013.2
20260901235343 68 78 0.0 0.0 0.12 0.80 0.80 99 1013.0
20260901234838 68 74 0.0 0.0 0.19 0.79 0.79 99 1013.1
20260901234332 69 84 0.0 0.0 0.12 0.78 0.78 99 1013.1
20260901233827 69 89 0.0 0.0 0.00 0.76 0.76 99 1012.9
20260901233323 70 73 0.0 0.0 0.00 0.76 0.76 99 1012.8
20260901232819 70 68 0.0 0.0 0.00 0.76 0.76 99 1012.7
20260901232313 71 65 1.0 1.0 0.00 0.76 0.76 99 1012.8
20260901231809 72 92 1.0 1.0 0.00 0.76 0.76 99 1012.5
20260901231306 73 106 1.0 1.0 0.00 0.76 0.76 99 1012.0
20260901230802 73 56 0.0 1.0 0.00 0.76 0.76 99 1012.3
20260901230301 73 2 0.0 1.0 0.00 0.76 0.76 99 1012.1
20260901225756 74 66 0.0 0.0 0.00 0.76 0.76 99 1012.1
20260901225250 74 154 0.0 0.0 0.00 0.76 0.76 99 1012.0
20260901224746 74 8 0.0 1.0 0.00 0.76 0.76 99 1012.1
20260901224237 74 80 0.0 0.0 0.00 0.76 0.76 99 1012.0
20260901223732 75 62 0.0 0.0 0.00 0.76 0.76 99 1011.9
20260901223227 75 61 0.0 0.0 0.00 0.76 0.76 99 1011.6
20260901222723 75 62 0.0 0.0 0.00 0.76 0.76 99 1011.7
20260901222219 75 64 0.0 0.0 0.00 0.76 0.76 99 1011.5
20260901221714 75 44 0.0 0.0 0.00 0.76 0.76 99 1011.6
20260901221210 75 83 0.0 0.0 0.00 0.76 0.76 98 1011.7
20260901220709 75 119 0.0 0.0 0.00 0.76 0.76 98 1011.5
20260901220209 75 91 0.0 0.0 0.00 0.76 0.76 98 1011.6
20260901215707 76 103 0.0 1.0 0.00 0.76 0.76 97 1011.8
20260901215202 76 13 0.0 0.0 0.00 0.76 0.76 97 1011.5
20260901214700 76 64 0.0 0.0 0.00 0.76 0.76 97 1011.5
20260901214154 76 309 0.0 0.0 0.00 0.76 0.76 97 1011.6
20260901213649 76 95 0.0 0.0 0.00 0.76 0.76 96 1011.5
20260901213144 76 60 0.0 0.0 0.00 0.76 0.76 96 1011.4
20260901212643 77 82 0.0 0.0 0.00 0.76 0.76 96 1011.2
20260901212140 77 34 0.0 0.0 0.00 0.76 0.76 94 1011.6
20260901211634 77 77 0.0 0.0 0.00 0.76 0.76 94 1011.4
20260901211131 77 75 0.0 0.0 0.00 0.76 0.76 92 1011.5
20260901210626 77 53 0.0 0.0 0.00 0.76 0.76 93 1011.5
20260901210122 77 68 0.0 0.0 0.00 0.76 0.76 95 1011.5
20260901205618 77 81 0.0 0.0 0.00 0.76 0.76 95 1011.5
20260901205117 77 76 0.0 0.0 0.00 0.76 0.76 94 1011.4
20260901204613 77 110 0.0 1.0 0.00 0.76 0.76 95 1011.5
20260901204108 77 78 0.0 0.0 0.00 0.76 0.76 93 1011.6
20260901203607 77 82 0.0 1.0 0.00 0.76 0.76 92 1011.6
20260901203102 77 80 0.0 0.0 0.00 0.76 0.76 91 1011.5
20260901202602 78 95 0.0 0.0 0.00 0.76 0.76 91 1011.5
20260901202059 78 31 0.0 0.0 0.00 0.76 0.76 91 1011.2
20260901201554 78 76 0.0 0.0 0.00 0.76 0.76 92 1011.3
20260901201053 78 92 0.0 0.0 0.00 0.76 0.76 91 1011.6
20260901200552 78 94 1.0 1.0 0.00 0.76 0.76 89 1011.3